Weather Roundup
Issued by NWS Chicago, IL

Home | Current Version | Previous Version | Text Only | Print | Product List | Glossary Off
Versions: 1 2 3 4 5 6 7 8 9 10 11 12 13 14 15 16 17 18 19 20 21 22 23 24 25 26 27 28 29 30 31 32 33 34 35 36 37 38 39 40 41 42 43 44 45 46 47 48 49 50

000
NZUS59 KLOT 270406
HRRLOT

CHICAGO AREA WEATHER ROUNDUP
NATIONAL WEATHER SERVICE CHICAGO/ROMEOVILLE IL
1000 PM CST WED NOV 26 2014

NOTE: "FAIR" INDICATES FEW OR NO CLOUDS BELOW 12,000 FEET WITH NO
SIGNIFICANT WEATHER AND/OR OBSTRUCTIONS TO VISIBILITY.

* THESE STATIONS ARE NOT UNDER NWS QUALITY CONTROL. THEY ALSO MAY NOT
  REPORT WEATHER SUCH AS PRECIPITATION OR FOG.

ILZ005-006-012>014-019>023-270500-
NORTHEAST ILLINOIS

CITY           SKY/WX    TMP DP  RH WIND       PRES   REMARKS
OHARE          CLOUDY    28  23  81 NW10      30.16S WCI  19
MIDWAY         CLOUDY    31  24  75 NW8       30.16S WCI  23
AURORA         CLOUDY    26  21  81 N10       30.19R HAZE    WCI  16
LANSING*       CLOUDY    28  21  75 W6        30.16S WCI  22
JOLIET*        CLOUDY    27  21  79 NW5       30.18S WCI  21
WAUKEGAN       CLOUDY    25  20  81 NW6       30.16S HAZE    WCI  18
DUPAGE AIRPORT CLOUDY    27  22  81 NW10      30.17R WCI  17
WHEELING       CLOUDY    27  22  81 NW13      30.19R WCI  16
KANKAKEE*      CLOUDY   N/A N/A N/A NW3       30.17S
MORRIS*        CLOUDY    26  24  90 NW6       30.18S WCI  20
LEWIS AIRPORT* CLOUDY    27  22  82 NW6       30.18R WCI  20
NORTHERLY IS     N/A     31  25  78 W9          N/A  WCI  23
$$

WIZ051-052-058>065-066-070>072-270500-
SOUTHEAST WISCONSIN

CITY           SKY/WX    TMP DP  RH WIND       PRES   REMARKS
MILWAUKEE      MOCLDY    25  18  74 NW13      30.18R WCI  14
KENOSHA*       CLOUDY    26  21  81 NW10      30.16S HAZE    WCI  16
RACINE*        CLOUDY    27  20  75 NW9       30.18S WCI  18
BURLINGTON     PTCLDY    19  17  89 NW14      30.18R WCI   6
WAUKESHA       PTCLDY    19  18  93 W6        30.19R FOG     WCI  11
WEST BEND      CLEAR     19  18  93 W5        30.18S FOG     WCI  13
$$

INZ001>003-010>013-019-020-270500-
NORTHWEST INDIANA

CITY           SKY/WX    TMP DP  RH WIND       PRES   REMARKS
GARY*          CLOUDY    30  22  71 W5        30.16S WCI  25
MICHIGAN CITY* NOT AVBL
RENSSELAER*    NOT AVBL
VALPARAISO     MOCLDY    24  18  77 CALM      30.15R
$$

LMZ740>746-270500-
SOUTHERN LAKE MICHIGAN

STATION/POSITION TIME  SKY/WX   TEMP WIND        PRES    VSBY
                                AIR  DIR/SP/G
                 (UTC)          (F)  (DEG/KT/KT) (MB)    (MI)
HARRISON CRIB    0400            30  310/ 11/ 13   N/A
BURNHAM HARBOR   0400            31  290/  6/ 12   N/A
CALUMET HARBOR   0400            32   30/  4/  6 1019.9R
BURNS HARBOR     NOT AVBL
MICHIGAN CITY    0400            27  120/  2/  3   N/A
$$

ABBREVIATIONS USED IN REMARKS
   TC - TEMPERATURE IN CELSIUS
  WCI - WIND CHILL INDEX
   HX - HEAT INDEX
  VSB - VISIBILITY
$$



USA.gov is the U.S. government's official web portal to all federal, state and local government web resources and services.